Content
SEND FEEDBACK

Daily
Averages
Monthly
Summary
South Korea

MASAN, SOUTH KOREA


Home > Asia > South Korea
Elevation: 6 meters     Latitude: 35 11N     Longitude: 128 34E

WEATHER
 
SELECT A DAY
Number of Records: 177,727;   Date Range: 7/1/96 - 12/26/14
 
SHARE

PRINT THIS DATA

[ ← Previous Day ]
WEATHER ALMANAC - 31 JANUARY, 2013
[ Next Day → ]
[ °F ]   °C
Weather ElementAverageHighLow
Temperature6.7 °C13 °C (2:00 pm)1 °C (2:00 am)
Dewpoint2.1 °C5 °C (4:00 pm)-2 °C (3:00 am)
Humidity74 %93 % (5:00 am)54 % (1:00 pm)
Barometer1030.5 hPa1032.2 hPa (8:00 am)1028.1 hPa (11:00 pm)
Wind Speed7.9 km/h14.8 km/h (5:00 pm)
Weather ElementAverage
Visibility8.2 km
Wind DirectionESE (121.7 °)

Weather ElementTotal
Precipitation---
Heating Degree Days11.3 (Base 18.3)
Averaged from 23 records on 31 January, 2013
WEATHER CONDITIONS BREAKOUT
WIND DIRECTION BREAKOUT
WEATHER BY HOUR - 31 JANUARY, 2013
[ °F ]   °C
Local TimeTemperatureDewpointHumidityBarometerVisibilityWind DirectionWind SpeedGust SpeedPrecipitationEventsConditions
1:00 AM3 °C0 °C81 %1031.5 hPa6 kmNNE (20°)7.4 km/hMostly Cloudy
2:00 AM1 °C-1 °C87 %1031.2 hPaNNE (20°)9.3 km/hMostly Cloudy
3:00 AM1 °C-2 °C81 %1031.2 hPaNE (40°)7.4 km/hMostly Cloudy
4:00 AM2 °C-1 °C81 %1031.2 hPaNE (50°)3.7 km/hMostly Cloudy
5:00 AM1 °C0 °C93 %1031.2 hPaNorth (10°)7.4 km/hMostly Cloudy
6:00 AM2 °C0 °C87 %1031.2 hPaNorth (350°)11.1 km/hMist
7:00 AM2 °C0 °C87 %1031.2 hPaNNE (20°)3.7 km/hMist
8:00 AM2 °C0 °C87 %1032.2 hPaNNE (30°)7.4 km/hMist
9:00 AM3 °C1 °C87 %1032.2 hPaNE (40°)7.4 km/hMist
10:00 AM5 °C2 °C81 %1032.2 hPaNE (40°)5.6 km/hMostly Cloudy
11:00 AM7 °C2 °C71 %1032.2 hPaNNW (330°)3.7 km/hMostly Cloudy
12:00 PM10 °C3 °C62 %1031.2 hPaNW (320°)5.6 km/hHaze
1:00 PM12 °C3 °C54 %1031.2 hPa6 kmSE (130°)5.6 km/hMostly Cloudy
2:00 PM13 °C4 °C54 %1030.1 hPa9 kmSE (130°)13 km/hMostly Cloudy
3:00 PM13 °C4 °C54 %1030.1 hPa10 kmSE (130°)13 km/hMostly Cloudy
4:00 PM12 °C5 °C62 %1029.1 hPaESE (120°)13 km/hClear
5:00 PM12 °C4 °C58 %1029.1 hPaESE (120°)14.8 km/hClear
6:00 PM10 °C4 °C66 %1029.1 hPaSE (130°)11.1 km/hClear
7:00 PM10 °C5 °C71 %1029.1 hPaEast (100°)9.3 km/hClear
8:00 PM9 °C4 °C71 %1030.1 hPaSSE (150°)7.4 km/hClear
9:00 PM8 °C3 °C71 %1030.1 hPaNNE (20°)5.6 km/hClear
10:00 PM8 °C4 °C76 %1029.1 hPaWSW (250°)5.6 km/hClear
11:00 PM7 °C4 °C81 %1028.1 hPa10 kmWSW (250°)3.7 km/hOvercast
Hourly data recorded from RKPK, located 0 kilometers away from Masan, South Korea







STORIES FROM OUR PARTNERS